Weather History for KPBH - August, 2012

Change the Weather History Date:

Friday, August 10, 2012

  Actual Average Record
Temperature  
Mean Temperature 61 °F -  
Max Temperature 71 °F 73 °F 87 °F (2007)
Min Temperature 48 °F 53 °F 41 °F (2008)
Degree Days  
Heating Degree Days 4    
Growing Degree Days 11 (Base 50)    
Moisture  
Dew Point 51 °F    
Average Humidity 70    
Maximum Humidity 94    
Minimum Humidity 43    
Precipitation  
Precipitation 0.00 in - - ()
Sea Level Pressure  
Sea Level Pressure 30.12 in    
Wind  
Wind Speed 8 mph (North)    
Max Wind Speed 17 mph    
Max Gust Speed 25 mph    
Visibility 10 miles    
Events      
Averages and records for this station are not official NWS values.
T = Trace of Precipitation, MM = Missing Value Source: NWS Daily Summary

Daily Weather History Graph

Daily Weather History Graph

Search for Another Location

Airport or City:

Trip Planner

Search our weather history database for the weather conditions in past years. The results will help you decide how hot, cold, wet, or windy it might be!

Date:

Astronomy

Aug. 10, 2012 Rise Set
Actual Time 5:56 AM CDT 8:16 PM CDT
Civil Twilight 5:23 AM CDT 8:49 PM CDT
Nautical Twilight 4:42 AM CDT 9:30 PM CDT
Astronomical Twilight 3:55 AM CDT 10:16 PM CDT
Moon No Moon Rise 3:01 PM CDT (8/10)
Length of Visible Light 15h 26m
Length of Day
14h 20m
Last Quarter, 41% of the Moon is Illuminated
Aug 10
Last Quarter
Aug 17
New
Aug 24
First Quarter
Aug 31
Full
Sep 8
Last Quarter

Hourly Weather History & Observations

Time (CDT) Temp. Dew Point Humidity Pressure Visibility Wind Dir Wind Speed Gust Speed Precip Events Conditions
12:15 AM 59.0 °F 57.2 °F 94% 30.10 in 10.0 mi NE 10.4 mph - N/A   Overcast
12:35 AM 59.0 °F 57.2 °F 94% 30.10 in 10.0 mi NE 9.2 mph - N/A   Overcast
12:55 AM 59.0 °F 55.4 °F 88% 30.10 in 10.0 mi NNE 8.1 mph - N/A   Mostly Cloudy
1:15 AM 59.0 °F 55.4 °F 88% 30.10 in 10.0 mi NNE 6.9 mph - N/A   Overcast
1:35 AM 59.0 °F 55.4 °F 88% 30.10 in 10.0 mi North 5.8 mph - N/A   Mostly Cloudy
1:55 AM 57.2 °F 55.4 °F 94% 30.10 in 10.0 mi North 6.9 mph - N/A   Scattered Clouds
2:15 AM 57.2 °F 55.4 °F 94% 30.10 in 10.0 mi North 5.8 mph - N/A   Clear
2:35 AM 57.2 °F 55.4 °F 94% 30.11 in 10.0 mi North 6.9 mph - N/A   Scattered Clouds
2:55 AM 57.2 °F 55.4 °F 94% 30.11 in 10.0 mi North 5.8 mph - N/A   Mostly Cloudy
3:15 AM 57.2 °F 53.6 °F 88% 30.11 in 10.0 mi North 5.8 mph - N/A   Mostly Cloudy
3:35 AM 57.2 °F 53.6 °F 88% 30.11 in 10.0 mi North 4.6 mph - N/A   Scattered Clouds
3:55 AM 57.2 °F 53.6 °F 88% 30.11 in 10.0 mi North 5.8 mph - N/A   Mostly Cloudy
4:15 AM 55.4 °F 53.6 °F 94% 30.11 in 10.0 mi North 6.9 mph - N/A   Overcast
4:35 AM 55.4 °F 53.6 °F 94% 30.12 in 10.0 mi North 6.9 mph - N/A   Mostly Cloudy
4:55 AM 55.4 °F 53.6 °F 94% 30.12 in 10.0 mi North 5.8 mph - N/A   Scattered Clouds
5:15 AM 55.4 °F 53.6 °F 94% 30.13 in 10.0 mi North 6.9 mph - N/A   Clear
5:35 AM 53.6 °F 51.8 °F 94% 30.13 in 10.0 mi North 5.8 mph - N/A   Clear
5:55 AM 53.6 °F 51.8 °F 94% 30.13 in 10.0 mi North 6.9 mph - N/A   Clear
6:15 AM 55.4 °F 53.6 °F 94% 30.14 in 10.0 mi North 8.1 mph - N/A   Scattered Clouds
6:35 AM 55.4 °F 53.6 °F 94% 30.15 in 10.0 mi North 5.8 mph - N/A   Clear
6:55 AM 57.2 °F 53.6 °F 88% 30.15 in 10.0 mi NNE 6.9 mph - N/A   Clear
7:15 AM 57.2 °F 53.6 °F 88% 30.15 in 10.0 mi North 3.5 mph - N/A   Scattered Clouds
7:35 AM 57.2 °F 55.4 °F 94% 30.16 in 10.0 mi North 4.6 mph - N/A   Clear
7:55 AM 60.8 °F 55.4 °F 82% 30.16 in 10.0 mi NNE 5.8 mph - N/A   Clear
8:15 AM 60.8 °F 55.4 °F 82% 30.15 in 10.0 mi NNE 9.2 mph - N/A   Clear
8:35 AM 62.6 °F 55.4 °F 77% 30.15 in 10.0 mi NNE 6.9 mph - N/A   Clear
8:55 AM 64.4 °F 55.4 °F 73% 30.15 in 10.0 mi NNE 6.9 mph - N/A   Scattered Clouds
9:15 AM 64.4 °F 55.4 °F 73% 30.15 in 10.0 mi NNE 9.2 mph - N/A   Scattered Clouds
9:35 AM 66.2 °F 53.6 °F 64% 30.15 in 10.0 mi NE 11.5 mph 16.1 mph N/A   Clear
9:55 AM 66.2 °F 53.6 °F 64% 30.15 in 10.0 mi NNE 13.8 mph - N/A   Clear
10:15 AM 66.2 °F 53.6 °F 64% 30.15 in 10.0 mi NNE 17.3 mph 23.0 mph N/A   Scattered Clouds
10:55 AM 69.8 °F 51.8 °F 53% 30.15 in 10.0 mi NNE 17.3 mph 25.3 mph N/A   Scattered Clouds
11:15 AM 68.0 °F 51.8 °F 56% 30.15 in 10.0 mi North 12.7 mph 21.9 mph N/A   Scattered Clouds
11:35 AM 69.8 °F 50.0 °F 49% 30.15 in 10.0 mi NNE 12.7 mph 23.0 mph N/A   Scattered Clouds
11:55 AM 69.8 °F 50.0 °F 49% 30.14 in 10.0 mi NNE 12.7 mph 21.9 mph N/A   Scattered Clouds
12:15 PM 69.8 °F 48.2 °F 46% 30.14 in 10.0 mi NE 17.3 mph 25.3 mph N/A   Scattered Clouds
12:35 PM 71.6 °F 51.8 °F 50% 30.14 in 10.0 mi North 12.7 mph 23.0 mph N/A   Scattered Clouds
12:55 PM 69.8 °F 51.8 °F 53% 30.13 in 10.0 mi NNE 10.4 mph 23.0 mph N/A   Scattered Clouds
1:15 PM 71.6 °F 48.2 °F 43% 30.13 in 10.0 mi NNE 11.5 mph 17.3 mph N/A   Scattered Clouds
1:35 PM 71.6 °F 50.0 °F 46% 30.13 in 10.0 mi North 11.5 mph 19.6 mph N/A   Scattered Clouds
1:55 PM 71.6 °F 50.0 °F 46% 30.13 in 10.0 mi NNE 13.8 mph 18.4 mph N/A   Scattered Clouds
2:15 PM 71.6 °F 50.0 °F 46% 30.13 in 10.0 mi North 11.5 mph 19.6 mph N/A   Clear
2:35 PM 71.6 °F 51.8 °F 50% 30.13 in 10.0 mi North 9.2 mph 19.6 mph N/A   Clear
2:55 PM 71.6 °F 50.0 °F 46% 30.13 in 10.0 mi North 9.2 mph 19.6 mph N/A   Scattered Clouds
3:15 PM 71.6 °F 50.0 °F 46% 30.12 in 10.0 mi NNE 15.0 mph 20.7 mph N/A   Scattered Clouds
3:35 PM 71.6 °F 48.2 °F 43% 30.12 in 10.0 mi NNE 15.0 mph 23.0 mph N/A   Clear
3:55 PM 71.6 °F 48.2 °F 43% 30.12 in 10.0 mi North 10.4 mph 16.1 mph N/A   Clear
4:15 PM 71.6 °F 48.2 °F 43% 30.12 in 10.0 mi North 10.4 mph 19.6 mph N/A   Clear
4:35 PM 71.6 °F 48.2 °F 43% 30.12 in 10.0 mi North 9.2 mph 17.3 mph N/A   Clear
4:55 PM 71.6 °F 48.2 °F 43% 30.12 in 10.0 mi NNE 13.8 mph 18.4 mph N/A   Clear
5:15 PM 69.8 °F 46.4 °F 43% 30.11 in 10.0 mi North 9.2 mph - N/A   Clear
5:35 PM 69.8 °F 46.4 °F 43% 30.11 in 10.0 mi North 10.4 mph 19.6 mph N/A   Clear
5:55 PM 69.8 °F 46.4 °F 43% 30.11 in 10.0 mi North 10.4 mph 17.3 mph N/A   Clear
6:15 PM 69.8 °F 48.2 °F 46% 30.11 in 10.0 mi NNE 11.5 mph 16.1 mph N/A   Clear
6:35 PM 68.0 °F 48.2 °F 49% 30.10 in 10.0 mi North 8.1 mph - N/A   Clear
6:55 PM 68.0 °F 46.4 °F 46% 30.10 in 10.0 mi North 8.1 mph - N/A   Clear
7:15 PM 66.2 °F 48.2 °F 52% 30.10 in 10.0 mi North 5.8 mph - N/A   Clear
7:35 PM 64.4 °F 48.2 °F 56% 30.10 in 10.0 mi North 4.6 mph - N/A   Clear
7:55 PM 64.4 °F 48.2 °F 56% 30.11 in 10.0 mi NNW 4.6 mph - N/A   Clear
8:15 PM 62.6 °F 48.2 °F 59% 30.11 in 10.0 mi NNW 4.6 mph - N/A   Clear
8:35 PM 60.8 °F 48.2 °F 63% 30.11 in 10.0 mi NNW 4.6 mph - N/A   Clear
8:55 PM 57.2 °F 48.2 °F 72% 30.11 in 10.0 mi NW 3.5 mph - N/A   Clear
9:35 PM 55.4 °F 48.2 °F 77% 30.12 in 10.0 mi NE 4.6 mph - N/A   Clear
9:55 PM 53.6 °F 48.2 °F 82% 30.12 in 10.0 mi Calm Calm - N/A   Clear
10:15 PM 53.6 °F 48.2 °F 82% 30.12 in 10.0 mi Calm Calm - N/A   Clear
10:35 PM 51.8 °F 46.4 °F 82% 30.12 in 10.0 mi NNE 3.5 mph - N/A   Clear
10:55 PM 51.8 °F 46.4 °F 82% 30.13 in 10.0 mi North 3.5 mph - N/A   Scattered Clouds
11:15 PM 51.8 °F 48.2 °F 88% 30.12 in 10.0 mi Calm Calm - N/A   Clear
11:35 PM 51.8 °F 46.4 °F 82% 30.12 in 10.0 mi North 3.5 mph - N/A   Clear
11:55 PM 48.2 °F 46.4 °F 93% 30.12 in 10.0 mi Calm Calm - N/A   Clear